Regional Weather Roundup
Issued by NWS

Home | Current Version | Previous Version | Graphics & Text | Print | Product List | Glossary On
Versions: 1 2 3 4 5 6 7 8 9 10 11 12 13 14 15 16 17 18 19 20 21 22 23 24 25 26 27 28 29 30 31 32 33 34 35 36 37 38 39 40 41 42 43 44 45 46 47 48 49 50
888
ASUS44 KJAN 271203
RWRMS

MISSISSIPPI HOURLY WEATHER ROUNDUP
NATIONAL WEATHER SERVICE JACKSON MS
600 AM CST THU NOV 27 2014

NOTE: "FAIR: INDICATES FEW OR NO CLOUDS BELOW 12,000 FEET WITH NO
SIGNIFICANT WEATHER AND/OR OBSTRUCTIONS TO VISIBILITY.

MSZ001>002-007>008-010>013-018>021-025>028-034>036-271300-
NORTHWEST MISSISSIPPI

CITY           SKY/WX    TMP DP  RH WIND       PRES   REMARKS
CLARKSDALE     MOCLDY    37  30  75 NW9       30.41R WCI  31
CLEVELAND      FAIR      37  31  80 NW8       30.43R WCI  31
GREENWOOD      CLEAR     38  29  70 NW6       30.42R WCI  33
6HR MIN TEMP:  30; 6HR MAX TEMP:  39;

GREENVILLE     CLEAR     39  29  67 NW10      30.42R WCI  32
6HR MIN TEMP:  39; 6HR MAX TEMP:  47;

GRENADA        FAIR      34  30  86 W5        30.40R WCI  30
OLIVE BRANCH   CLOUDY    37  32  81 N17G23    30.37R WCI  28
OXFORD         CLOUDY    37  28  70 N14G20    30.38R WCI  29
TUNICA         CLOUDY    37  30  75 N17       30.41R WCI  28
$$

MSZ003>006-009-014>017-022>024-029>033-037>039-271300-
NORTHEAST MISSISSIPPI

CITY           SKY/WX    TMP DP  RH WIND       PRES   REMARKS
COLUMBUS AFB   CLEAR     37  28  70 NW13      30.34R WCI  29
6HR MIN TEMP:  33; 6HR MAX TEMP:  41;

CORINTH        CLOUDY    39  32  75 NW9G17    30.32R WCI  33
GOLDN TRIANGLE CLEAR     36  28  75 NW6       30.33R WCI  31
STARKVILLE     FAIR      36  32  87 NW3       30.36R
TUPELO         CLEAR     36  28  73 NW5       30.35R WCI  32
6HR MIN TEMP:  36; 6HR MAX TEMP:  40;

$$

MSZ040-058-271300-
CENTRAL MISSISSIPPI

CITY           SKY/WX    TMP DP  RH WIND       PRES   REMARKS
JACKSON INTL   CLEAR     41  31  67 N9        30.39R
6HR MIN TEMP:  40; 6HR MAX TEMP:  51;

JACKSON HAWKNS CLEAR     42  30  62 NW9       30.39R
6HR MIN TEMP:  41; 6HR MAX TEMP:  49;

MERIDIAN KEY   CLEAR     32  29  88 CALM      30.36R
6HR MIN TEMP:  31; 6HR MAX TEMP:  39;

MERIDIAN NAS   CLEAR     35  30  82 NW8       30.36R WCI  29
6HR MIN TEMP:  33; 6HR MAX TEMP:  43;

RAYMOND        FAIR      36  32  87 MISG      30.39R
VICKSBURG      CLEAR     39  32  76 NW6       30.43R WCI  35
6HR MIN TEMP:  34; 6HR MAX TEMP:  44;

$$

MSZ059>079-271300-
SOUTH MISSISSIPPI

CITY           SKY/WX    TMP DP  RH WIND       PRES   REMARKS
BROOKHAVEN     FAIR      43  34  70 CALM      30.39R
HATTIESBURG    CLEAR     40  33  76 CALM      30.37R
6HR MIN TEMP:  38; 6HR MAX TEMP:  45;

MCCOMB         CLEAR     44  32  62 NW9       30.38R
6HR MIN TEMP:  43; 6HR MAX TEMP:  50;

NATCHEZ        CLEAR     43  30  61 N5        30.41R
6HR MIN TEMP:  43; 6HR MAX TEMP:  48;

PINE BELT      CLEAR     43  28  56 NW7       30.35R
6HR MIN TEMP:  39; 6HR MAX TEMP:  48;

$$

MSZ080>082-271300-
COASTAL MISSISSIPPI

CITY           SKY/WX    TMP DP  RH WIND       PRES   REMARKS
BILOXI         CLEAR     47  43  86 VRB2      30.35R
6HR MIN TEMP:  46; 6HR MAX TEMP:  56;

PASCAGOULA     CLEAR     38  37  97 CALM      30.35R
6HR MIN TEMP:  37; 6HR MAX TEMP:  54;

GULFPORT       CLEAR     41  40  96 NW3       30.35R
6HR MIN TEMP:  41; 6HR MAX TEMP:  54;

$$



USA.gov is the U.S. government's official web portal to all federal, state and local government web resources and services.